Rechercher aéroport 
image banner adimage banner adimage banner ad
image banner ad

CN16 - Mercy Hospital Of Folsom

Situé à Folsom, United States

ICAO - CN16, IATA -

Données fournies par Airmate  

Information générale

Coordonnées: N38°40'15" W121°8'34"
Élévation : 335 feet MSL.
 
Voir autres Aéroports à California

Données opérationnelles

Special qualification required
Heure actuelle UTC:
Heure actuelle locale:
Météo à : KMHR - Sacramento Mather ( 19 km )
METAR: KMHR 260935Z 16006KT 10SM CLR 12/10 A2996 RMK A01 PRESFR
TAF: KMHR 260537Z 2606/2706 18008KT P6SM SKC FM260900 15006KT P6SM SCT250 FM261300 15006KT P6SM OVC010 FM261800 20006KT P6SM SKC FM262100 20008KT P6SM SCT250
Voir NOTAMs / SUP AIP / TFR affectant cet aéroport [VIEW]
Fréquences de communication: [VIEW]

Pistes:

Coordonnées de l'aéroport

Adresse: Folsom United States

Vue satellite de CN16